TimeAKDT,TemperatureF,Dew PointF,Humidity,Sea Level PressureIn,VisibilityMPH,Wind Direction,Wind SpeedMPH,Gust SpeedMPH,PrecipitationIn,Events,Conditions,WindDirDegrees,DateUTC
12:53 AM,42.1,42.1,100,30.11,10.0,NW,3.5,-,N/A,,Clear,310,2013-09-25 08:53:00
1:53 AM,42.1,42.1,100,30.12,10.0,NNW,3.5,-,N/A,,Clear,340,2013-09-25 09:53:00
2:53 AM,43.0,42.1,97,30.12,10.0,North,3.5,-,N/A,,Clear,350,2013-09-25 10:53:00
3:53 AM,43.0,43.0,100,30.12,10.0,NNW,5.8,-,N/A,,Clear,330,2013-09-25 11:53:00
4:53 AM,42.1,42.1,100,30.14,10.0,Calm,Calm,-,N/A,,Clear,0,2013-09-25 12:53:00
5:53 AM,41.0,41.0,100,30.14,10.0,NNW,3.5,-,N/A,,Clear,330,2013-09-25 13:53:00
6:53 AM,39.9,39.9,100,30.15,9.0,Calm,Calm,-,N/A,,Clear,0,2013-09-25 14:53:00
7:53 AM,46.0,46.0,100,30.16,10.0,Calm,Calm,-,N/A,,Clear,0,2013-09-25 15:53:00
8:53 AM,51.1,48.9,92,30.17,10.0,NW,5.8,-,N/A,,Clear,320,2013-09-25 16:53:00
9:32 AM,51.8,48.2,88,30.17,10.0,WNW,5.8,-,N/A,,Partly Cloudy,300,2013-09-25 17:32:00
9:53 AM,53.1,48.0,83,30.17,10.0,WNW,5.8,-,N/A,,Clear,300,2013-09-25 17:53:00
10:53 AM,55.0,46.9,74,30.18,10.0,NW,4.6,-,N/A,,Partly Cloudy,310,2013-09-25 18:53:00
11:53 AM,57.0,46.9,69,30.17,10.0,WNW,3.5,-,N/A,,Clear,300,2013-09-25 19:53:00
12:53 PM,59.0,46.9,64,30.17,10.0,NNW,4.6,-,N/A,,Scattered Clouds,340,2013-09-25 20:53:00
1:53 PM,59.0,48.0,67,30.16,10.0,WNW,4.6,-,N/A,,Mostly Cloudy,290,2013-09-25 21:53:00
2:53 PM,59.0,46.9,64,30.16,10.0,WNW,5.8,-,N/A,,Mostly Cloudy,290,2013-09-25 22:53:00
3:53 PM,57.0,45.0,64,30.15,10.0,WNW,4.6,-,N/A,,Mostly Cloudy,290,2013-09-25 23:53:00
4:53 PM,55.0,46.0,72,30.15,10.0,Calm,Calm,-,N/A,,Clear,0,2013-09-26 00:53:00
5:53 PM,51.1,48.0,89,30.14,10.0,Calm,Calm,-,N/A,,Clear,0,2013-09-26 01:53:00
6:53 PM,48.0,46.9,96,30.14,10.0,Calm,Calm,-,N/A,,Clear,0,2013-09-26 02:53:00
7:53 PM,46.9,46.9,100,30.14,10.0,Calm,Calm,-,N/A,,Clear,0,2013-09-26 03:53:00
8:53 PM,46.9,46.0,97,30.13,10.0,Calm,Calm,-,N/A,,Clear,0,2013-09-26 04:53:00
9:53 PM,46.9,46.0,97,30.14,10.0,Calm,Calm,-,N/A,,Clear,0,2013-09-26 05:53:00
10:53 PM,45.0,44.1,97,30.13,10.0,Calm,Calm,-,N/A,,Clear,0,2013-09-26 06:53:00
11:53 PM,45.0,44.1,97,30.12,10.0,ESE,3.5,-,N/A,,Clear,120,2013-09-26 07:53:00